User: anonymous   Login
Location: Brno
(49.2000°N, 16.6330°E)
Time: 01:55:53
(UTC+02:00)
Language:

CARTOSAT-1 - Orbit

View from above orbital plane
View from above orbital plane
View from above satellite
View from above satellite

Ground track
Ground track

The orbit data is extracted from the following two-line orbital elements,

1 28649U 05017A   17173.75424464 +.00000093 +00000-0 +17677-4 0  9991
2 28649 097.8601 248.0720 0003206 048.7604 311.3887 14.83449489656805
Epoch (UTC): 22 June 2017 18:06:06
Eccentricity: 0.0003206
inclination: 97.8601°
perigee height: 616 km
apogee height: 621 km
right ascension of ascending node: 248.0720°
argument of perigee: 48.7604°
revolutions per day: 14.83449489
mean anomaly at epoch: 311.3887°
orbit number at epoch: 65680

The dashed part of the orbit path shows where the satellite is in the earth's shadow,  

DLR